Beckley, WV

12:49 AM EST on December 06, 2019 (GMT -0500)
Raleigh County Memorial

Weather History for KBKW - June, 2019

Change the Weather History Date:

Sunday, June 2, 2019

  Actual Average Record
Temperature  
Mean Temperature 66 °F 64 °F  
Max Temperature 76 °F 74 °F 88 °F (1937)
Min Temperature 55 °F 54 °F 33 °F (1955)
Degree Days  
Heating Degree Days 0 3  
Month to date heating degree days 0 6  
Since 1 June heating degree days 0 6  
Since 1 July heating degree days 4751 5307  
Cooling Degree Days 1 2  
Month to date cooling degree days 3 4  
Year to date cooling degree days 123 45  
Since 1 June cooling degree days 3 4  
Growing Degree Days 15 (Base 50)    
Moisture  
Dew Point 56 °F    
Average Humidity 73    
Maximum Humidity 93    
Minimum Humidity 53    
Precipitation  
Precipitation 0.00 in 0.14 in 1.25 in (1939)
Month to date precipitation 0.00 0.28  
Year to date precipitation 20.34 17.44  
Sea Level Pressure  
Sea Level Pressure 29.85 in    
Wind  
Wind Speed 5 mph (WSW)    
Max Wind Speed 15 mph    
Max Gust Speed 20 mph    
Visibility 10 miles    
Events      
T = Trace of Precipitation, MM = Missing Value Source: NWS Daily Summary

Daily Weather History Graph

Daily Weather History Graph

Search for Another Location

Airport or City:

Astronomy

Jun. 02, 2019 Rise Set
Actual Time 6:03 AM EDT 8:41 PM EDT
Civil Twilight 5:33 AM EDT 9:12 PM EDT
Nautical Twilight 4:54 AM EDT 9:50 PM EDT
Astronomical Twilight 4:12 AM EDT 10:33 PM EDT
Moon 5:40 AM EDT (6/2) 8:00 PM EDT (6/2)
Length of Visible Light 15h 38m
Length of Day
14h 37m
Waning Crescent, 1% of the Moon is Illuminated
Jun 2
Waning Crescent
Jun 3
New
Jun 10
First Quarter
Jun 17
Full
Jun 25
Last Quarter

Hourly Weather History & Observations

Time (EDT) Temp. Dew Point Humidity Pressure Visibility Wind Dir Wind Speed Gust Speed Precip Events Conditions
12:51 AM 57.9 °F 54.0 °F 87% 29.87 in 10.0 mi SSE 6.9 mph - N/A   Clear
1:51 AM 57.9 °F 54.0 °F 87% 29.84 in 10.0 mi South 5.8 mph - N/A   Clear
2:51 AM 57.9 °F 54.0 °F 87% 29.83 in 10.0 mi Calm Calm - N/A   Clear
3:51 AM 55.9 °F 53.1 °F 90% 29.81 in 10.0 mi South 3.5 mph - N/A   Clear
4:51 AM 57.0 °F 53.1 °F 87% 29.82 in 10.0 mi Calm Calm - N/A   Clear
5:51 AM 55.0 °F 53.1 °F 93% 29.82 in 10.0 mi Calm Calm - N/A   Clear
6:51 AM 57.9 °F 54.0 °F 87% 29.83 in 10.0 mi South 3.5 mph - N/A   Scattered Clouds
7:51 AM 62.1 °F 55.9 °F 80% 29.83 in 10.0 mi SSW 4.6 mph - N/A   Clear
8:51 AM 64.9 °F 57.0 °F 75% 29.84 in 10.0 mi WSW 4.6 mph - N/A   Clear
9:51 AM 68.0 °F 57.9 °F 70% 29.86 in 10.0 mi SW 6.9 mph - N/A   Partly Cloudy
10:51 AM 71.1 °F 57.9 °F 63% 29.85 in 10.0 mi West 9.2 mph - N/A   Scattered Clouds
11:51 AM 73.0 °F 57.0 °F 57% 29.84 in 10.0 mi WNW 9.2 mph - N/A   Scattered Clouds
12:51 PM 73.9 °F 55.9 °F 53% 29.84 in 10.0 mi West 9.2 mph - N/A   Partly Cloudy
1:51 PM 75.0 °F 57.0 °F 53% 29.81 in 10.0 mi West 9.2 mph - N/A   Mostly Cloudy
2:51 PM 73.0 °F 55.9 °F 55% 29.81 in 10.0 mi WSW 8.1 mph - N/A   Partly Cloudy
3:51 PM 71.1 °F 55.0 °F 57% 29.80 in 10.0 mi SW 8.1 mph - N/A   Clear
4:51 PM 71.1 °F 57.0 °F 61% 29.81 in 10.0 mi WSW 3.5 mph - N/A   Scattered Clouds
5:51 PM 70.0 °F 59.0 °F 68% 29.83 in 10.0 mi West 6.9 mph - N/A   Mostly Cloudy
6:51 PM 69.1 °F 57.9 °F 68% 29.82 in 10.0 mi WNW 8.1 mph - N/A   Partly Cloudy
7:51 PM 68.0 °F 57.9 °F 70% 29.85 in 10.0 mi West 5.8 mph - N/A   Scattered Clouds
8:51 PM 64.9 °F 57.9 °F 78% 29.85 in 9.0 mi SW 3.5 mph - N/A   Clear
9:51 PM 63.0 °F 57.9 °F 84% 29.87 in 9.0 mi Calm Calm - N/A   Partly Cloudy
10:17 PM 62.1 °F 57.9 °F 86% 29.96 in 9.0 mi Calm Calm - N/A   Mostly Cloudy
10:51 PM 62.1 °F 57.9 °F 86% 29.88 in 9.0 mi WSW 3.5 mph - N/A   Overcast
11:06 PM 62.1 °F 57.0 °F 84% 29.96 in 9.0 mi WSW 3.5 mph - N/A   Mostly Cloudy
11:17 PM 61.0 °F 57.0 °F 87% 29.96 in 9.0 mi SW 3.5 mph - N/A   Mostly Cloudy
11:51 PM 62.1 °F 57.0 °F 84% 29.89 in 9.0 mi Calm Calm - N/A   Overcast